This demonstration page uses our WeatherBlox Daily Observations layout. Learn more.

Left ArrowRight Arrow

Hourly Observations for February 25, 2019

Temp ( °F °C ) Dew Point ( °F °C ) Humidity (%) Winds ( mph kmh ) Pressure ( in mb ) Visibility ( mi km ) Precip ( " mm )
12:15 am 00:15 Clear 43 6 21 -6 42 42 WNW 24 39 29.76 1008 10 16.0934 0 0
12:35 am 00:35 Clear 43 6 21 -6 42 42 WNW 25 41 29.77 1008 10 16.0934 0 0
12:55 am 00:55 Clear 43 6 19 -7 39 39 WNW 23 37 29.78 1009 10 16.0934 0 0
1:15 am 01:15 Clear 43 6 19 -7 39 39 WNW 13 20 29.78 1009 10 16.0934 0 0
1:35 am 01:35 Clear 43 6 19 -7 39 39 W 15 24 29.8 1009 10 16.0934 0 0
1:55 am 01:55 Clear 41 5 19 -7 42 42 WNW 12 19 29.8 1009 10 16.0934 0 0
2:15 am 02:15 Clear 41 5 19 -7 42 42 WNW 18 30 29.81 1010 10 16.0934 0 0
2:35 am 02:35 Clear 41 5 19 -7 42 42 W 17 28 29.81 1010 10 16.0934 0 0
2:55 am 02:55 Clear 41 5 18 -8 39 39 WNW 17 28 29.81 1010 10 16.0934 0 0
3:15 am 03:15 Clear 41 5 14 -10 33 33 WNW 32 52 29.83 1010 10 16.0934 0 0
3:35 am 03:35 Clear 39 4 14 -10 36 36 WNW 20 31 29.85 1011 10 16.0934 0 0
3:55 am 03:55 Clear 39 4 14 -10 36 36 WNW 13 20 29.86 1011 10 16.0934 0 0
4:15 am 04:15 Clear 39 4 14 -10 36 36 WNW 23 37 29.87 1011 10 16.0934 0 0
4:35 am 04:35 Clear 37 3 14 -10 38 38 WNW 18 30 29.87 1011 10 16.0934 0 0
4:55 am 04:55 Clear 39 4 14 -10 36 36 WNW 18 30 29.89 1012 10 16.0934 0 0
5:15 am 05:15 Clear 37 3 14 -10 38 38 WNW 18 30 29.9 1012 10 16.0934 0 0
5:35 am 05:35 Clear 37 3 12 -11 35 35 WNW 15 24 29.92 1013 10 16.0934 0 0
5:55 am 05:55 Clear 37 3 12 -11 35 35 WNW 18 30 29.93 1013 10 16.0934 0 0
6:15 am 06:15 Clear 37 3 12 -11 35 35 W 13 20 29.94 1014 10 16.0934 0 0
6:35 am 06:35 Clear 37 3 12 -11 35 35 WNW 18 30 29.95 1014 10 16.0934 0 0
6:55 am 06:55 Sunny 37 3 12 -11 35 35 WNW 22 35 29.97 1015 10 16.0934 0 0
7:15 am 07:15 Sunny 37 3 12 -11 35 35 NW 22 35 29.99 1015 10 16.0934 0 0
7:35 am 07:35 Sunny 37 3 12 -11 35 35 WNW 23 37 30.01 1016 10 16.0934 0 0
7:55 am 07:55 Sunny 37 3 10 -12 33 33 WNW 28 44 30.03 1017 10 16.0934 0 0
8:15 am 08:15 Sunny 37 3 10 -12 33 33 WNW 24 39 30.05 1018 10 16.0934 0 0
8:35 am 08:35 Sunny 37 3 12 -11 35 35 WNW 28 44 30.07 1018 10 16.0934 0 0
8:55 am 08:55 Sunny 37 3 12 -11 35 35 NW 29 46 30.08 1019 10 16.0934 0 0
9:15 am 09:15 Sunny 39 4 12 -11 33 33 WNW 31 50 30.08 1018 10 16.0934 0 0
9:35 am 09:35 Sunny 39 4 12 -11 33 33 WNW 33 54 30.09 1019 10 16.0934 0 0
9:55 am 09:55 Sunny 41 5 14 -10 33 33 NW 26 43 30.09 1019 10 16.0934 0 0
10:15 am 10:15 Sunny 41 5 12 -11 31 31 WNW 25 41 30.1 1019 10 16.0934 0 0
10:35 am 10:35 Sunny 41 5 12 -11 31 31 WNW 25 41 30.11 1020 10 16.0934 0 0
10:55 am 10:55 Sunny 41 5 12 -11 31 31 WNW 32 52 30.12 1020 10 16.0934 0 0
11:15 am 11:15 Sunny 41 5 12 -11 31 31 NW 28 44 30.12 1020 10 16.0934 0 0
11:35 am 11:35 Sunny 43 6 14 -10 31 31 WNW 25 41 30.13 1020 10 16.0934 0 0
11:55 am 11:55 Sunny 43 6 14 -10 31 31 WNW 24 39 30.14 1021 10 16.0934 0 0
12:15 pm 12:15 Sunny 45 7 14 -10 29 29 NW 22 35 30.14 1021 10 16.0934 0 0
12:35 pm 12:35 Sunny 45 7 14 -10 29 29 WNW 30 48 30.14 1021 10 16.0934 0 0
12:55 pm 12:55 Sunny 45 7 14 -10 29 29 WNW 26 43 30.14 1021 10 16.0934 0 0
1:15 pm 13:15 Sunny 45 7 14 -10 29 29 NW 29 46 30.14 1021 10 16.0934 0 0
1:35 pm 13:35 Sunny 46 8 14 -10 27 27 W 25 41 30.14 1021 10 16.0934 0 0
1:55 pm 13:55 Sunny 46 8 14 -10 27 27 WNW 25 41 30.13 1020 10 16.0934 0 0
2:15 pm 14:15 Sunny 46 8 12 -11 25 25 NW 28 44 30.14 1021 10 16.0934 0 0
2:35 pm 14:35 Sunny 46 8 14 -10 27 27 NW 21 33 30.14 1021 10 16.0934 0 0
2:55 pm 14:55 Sunny 46 8 16 -9 29 29 WNW 26 43 30.15 1021 10 16.0934 0 0
3:15 pm 15:15 Sunny 46 8 14 -10 27 27 WNW 24 39 30.16 1021 10 16.0934 0 0
3:35 pm 15:35 Sunny 46 8 12 -11 25 25 WNW 26 43 30.17 1022 10 16.0934 0 0
3:55 pm 15:55 Sunny 46 8 12 -11 25 25 NW 21 33 30.18 1022 10 16.0934 0 0
4:15 pm 16:15 Sunny 46 8 12 -11 25 25 NW 26 43 30.19 1022 10 16.0934 0 0
4:35 pm 16:35 Sunny 46 8 14 -10 27 27 NW 21 33 30.2 1023 10 16.0934 0 0
4:55 pm 16:55 Sunny 45 7 12 -11 27 27 WNW 26 43 30.21 1023 10 16.0934 0 0
5:15 pm 17:15 Sunny 45 7 10 -12 25 25 WNW 30 48 30.22 1023 10 16.0934 0 0
5:55 pm 17:55 Sunny 43 6 10 -12 26 26 WNW 21 33 30.24 1024 10 16.0934 0 0
6:15 pm 18:15 Clear 43 6 10 -12 26 26 NW 13 20 30.24 1024 10 16.0934 0 0
6:35 pm 18:35 Clear 41 5 12 -11 31 31 NW 9 15 30.25 1025 10 16.0934 0 0
6:55 pm 18:55 Clear 41 5 12 -11 31 31 WNW 12 19 30.27 1025 10 16.0934 0 0
7:15 pm 19:15 Clear 41 5 12 -11 31 31 NW 13 20 30.27 1025 10 16.0934 0 0
7:35 pm 19:35 Clear 41 5 10 -12 28 28 WNW 14 22 30.29 1026 10 16.0934 0 0
7:55 pm 19:55 Clear 41 5 10 -12 28 28 WNW 9 15 30.29 1026 10 16.0934 0 0
8:15 pm 20:15 Clear 41 5 10 -12 28 28 WNW 17 28 30.29 1026 10 16.0934 0 0
8:35 pm 20:35 Clear 41 5 10 -12 28 28 NW 20 31 30.3 1026 10 16.0934 0 0
8:55 pm 20:55 Clear 39 4 10 -12 30 30 NW 20 31 30.31 1026 10 16.0934 0 0
9:15 pm 21:15 Clear 41 5 10 -12 28 28 NW 21 33 30.3 1026 10 16.0934 0 0
9:35 pm 21:35 Clear 39 4 10 -12 30 30 NW 17 28 30.32 1027 10 16.0934 0 0
9:55 pm 21:55 Clear 39 4 10 -12 30 30 NW 17 28 30.31 1026 10 16.0934 0 0
10:15 pm 22:15 Clear 39 4 10 -12 30 30 NW 17 28 30.31 1026 10 16.0934 0 0
10:35 pm 22:35 Clear 37 3 10 -12 33 33 NW 18 30 30.33 1027 10 16.0934 0 0
10:55 pm 22:55 Clear 37 3 10 -12 33 33 NW 12 19 30.34 1027 10 16.0934 0 0
11:15 pm 23:15 Clear 37 3 10 -12 33 33 NW 9 15 30.33 1027 10 16.0934 0 0
11:35 pm 23:35 Clear 39 4 10 -12 30 30 NW 16 26 30.33 1027 10 16.0934 0 0
11:55 pm 23:55 Clear 39 4 12 -11 33 33 NW 12 19 30.35 1028 10 16.0934 0 0

Powered by AerisWeather